Estación Meteorológica Peña el Pijo (Robertgarden) [ 07/15/20 05:46:49 CEST ]

Fecha Hora Presion(HPa) Temp (°C) Humedad % Rocio (°C) Viento ( m/s) Direccion Lluvia 1Hora(mm) Lluvia 24H(mm) LLuvia Total(mm)
2020-Feb-25 01:09:10 1013.200 - - - - N     39.88
2020-Feb-25 02:10:50 1012.800 - - - - N     39.88
2020-Feb-25 03:09:09 1011.900 - - - - N     39.88
2020-Feb-25 04:08:59 1011.400 - - - - N     39.88
2020-Feb-25 05:08:58 1010.900 - - - - N     39.88
2020-Feb-25 06:08:50 1011.000 - - - - N     39.88
2020-Feb-25 07:09:09 1011.100 - - - - N     39.88
2020-Feb-25 08:09:39 1010.900 - - - - N     39.88
2020-Feb-25 09:09:14 1011.200 - - - - N     39.88
2020-Feb-25 10:09:16 1011.600 - - - - N     39.88
2020-Feb-25 11:09:20 1011.300 - - - - N     39.88
2020-Feb-25 12:08:52 1010.700 - - - - N     39.88
2020-Feb-25 13:08:51 1010.000 - - - - N     39.88
2020-Feb-25 14:08:49 1010.100 - - - - N     39.88
2020-Feb-25 15:09:03 1009.000 - - - - N     39.88
2020-Feb-25 16:08:59 1008.200 - - - - N     39.88
2020-Feb-25 17:09:36 1008.400 - - - - N     39.88
2020-Feb-25 18:09:02 1008.800 - - - - N     39.88
2020-Feb-25 19:09:59 1009.200 - - - - N     39.88
2020-Feb-25 20:09:04 1009.500 - - - - N     39.88
2020-Feb-25 21:09:26 1009.500 - - - - N     39.88
2020-Feb-25 22:09:22 1009.800 - - - - N     39.88
2020-Feb-25 23:08:53 1010.200 - - - - N     39.88

Temperatura Máxima:    Temperatura Mínima:
Presión Máxima:1013.200 Hpa    Presión Mínima:1008.200 Hpa


Volver